contact:dominique.lefevre@mio.osupytheas.fr, maurice.libes@osupytheas.fr, didier.mallarino@osupytheas.fr
Project:EMSO http://www.emso-fr.org/EMSO-France
Depth: 2436.0 m
Title:EMSO Ligure Ouest : Data MII capteur MICROCAT
DateTime_Computer,Latitude,Longitude,Temperature,Conductivity,Pressure,DateTime_Instrument
DateTime_Computer,Latitude,Longitude,degC,S m-1,dbar,DateTime_Instrument
2023-05-09T00:02:39Z,42.805,6.029,13.3014,4.60070,2470.777,2023-5-09T02:05:49Z
2023-05-09T00:05:42Z,42.805,6.029,13.3015,4.60074,2470.763,2023-5-09T02:08:52Z
2023-05-09T00:08:45Z,42.805,6.029,13.3017,4.60073,2470.777,2023-5-09T02:11:55Z
2023-05-09T00:11:48Z,42.805,6.029,13.3011,4.60069,2470.74,2023-5-09T02:14:58Z
2023-05-09T00:14:51Z,42.805,6.029,13.3014,4.60072,2470.763,2023-5-09T02:18:01Z
2023-05-09T00:17:54Z,42.805,6.029,13.3018,4.60072,2470.787,2023-5-09T02:21:04Z
2023-05-09T00:20:57Z,42.805,6.029,13.3019,4.60069,2470.74,2023-5-09T02:24:07Z
2023-05-09T00:24:00Z,42.805,6.029,13.3015,4.60069,2470.787,2023-5-09T02:27:10Z
2023-05-09T00:27:04Z,42.805,6.029,13.3016,4.60074,2470.763,2023-5-09T02:30:13Z
2023-05-09T00:30:07Z,42.805,6.029,13.3016,4.60069,2470.763,2023-5-09T02:33:17Z
2023-05-09T00:33:10Z,42.805,6.029,13.3015,4.60077,2470.763,2023-5-09T02:36:20Z
2023-05-09T00:36:13Z,42.805,6.029,13.3017,4.60069,2470.763,2023-5-09T02:39:23Z
2023-05-09T00:39:16Z,42.805,6.029,13.3017,4.60071,2470.74,2023-5-09T02:42:26Z
2023-05-09T00:42:19Z,42.805,6.029,13.3019,4.60071,2470.8,2023-5-09T02:45:29Z
2023-05-09T00:45:22Z,42.805,6.029,13.3014,4.60072,2470.754,2023-5-09T02:48:32Z
2023-05-09T00:48:25Z,42.805,6.029,13.3015,4.60071,2470.763,2023-5-09T02:51:35Z
2023-05-09T00:51:28Z,42.805,6.029,13.3015,4.60072,2470.74,2023-5-09T02:54:38Z
2023-05-09T00:54:31Z,42.805,6.029,13.3013,4.60070,2470.754,2023-5-09T02:57:41Z
2023-05-09T00:57:34Z,42.805,6.029,13.3011,4.60072,2470.74,2023-5-09T03:00:44Z
2023-05-09T01:00:37Z,42.805,6.029,13.3016,4.60077,2470.74,2023-5-09T03:03:47Z
2023-05-09T01:03:40Z,42.805,6.029,13.3018,4.60074,2470.777,2023-5-09T03:06:50Z
2023-05-09T01:06:44Z,42.805,6.029,13.3015,4.60072,2470.717,2023-5-09T03:09:53Z
2023-05-09T01:09:47Z,42.805,6.029,13.3014,4.60072,2470.754,2023-5-09T03:12:57Z
2023-05-09T01:12:50Z,42.805,6.029,13.3014,4.60077,2470.754,2023-5-09T03:16:00Z
2023-05-09T01:15:53Z,42.805,6.029,13.3017,4.60079,2470.717,2023-5-09T03:19:03Z
2023-05-09T01:18:56Z,42.805,6.029,13.3019,4.60076,2470.717,2023-5-09T03:22:06Z
2023-05-09T01:21:59Z,42.805,6.029,13.3017,4.60075,2470.74,2023-5-09T03:25:09Z
2023-05-09T01:25:02Z,42.805,6.029,13.3015,4.60078,2470.717,2023-5-09T03:28:12Z
2023-05-09T01:28:05Z,42.805,6.029,13.3017,4.60079,2470.754,2023-5-09T03:31:15Z
2023-05-09T01:31:08Z,42.805,6.029,13.3014,4.60074,2470.754,2023-5-09T03:34:18Z
2023-05-09T01:34:11Z,42.805,6.029,13.3014,4.60075,2470.73,2023-5-09T03:37:21Z
2023-05-09T01:37:14Z,42.805,6.029,13.3018,4.60074,2470.754,2023-5-09T03:40:24Z
2023-05-09T01:40:17Z,42.805,6.029,13.3015,4.60072,2470.754,2023-5-09T03:43:27Z
2023-05-09T01:43:20Z,42.805,6.029,13.3012,4.60077,2470.717,2023-5-09T03:46:30Z
2023-05-09T01:46:24Z,42.805,6.029,13.3017,4.60074,2470.693,2023-5-09T03:49:33Z
2023-05-09T01:49:27Z,42.805,6.029,13.3015,4.60077,2470.717,2023-5-09T03:52:37Z
2023-05-09T01:52:30Z,42.805,6.029,13.3016,4.60082,2470.717,2023-5-09T03:55:40Z
2023-05-09T01:55:33Z,42.805,6.029,13.3018,4.60078,2470.693,2023-5-09T03:58:43Z
2023-05-09T01:58:36Z,42.805,6.029,13.3016,4.60076,2470.684,2023-5-09T04:01:46Z
2023-05-09T02:01:39Z,42.805,6.029,13.3019,4.60074,2470.679,2023-5-09T04:04:49Z
2023-05-09T02:04:42Z,42.805,6.029,13.3015,4.60077,2470.693,2023-5-09T04:07:52Z
2023-05-09T02:07:45Z,42.805,6.029,13.3015,4.60081,2470.717,2023-5-09T04:10:55Z
2023-05-09T02:10:48Z,42.805,6.029,13.3015,4.60073,2470.717,2023-5-09T04:13:58Z
2023-05-09T02:13:51Z,42.805,6.029,13.3014,4.60077,2470.73,2023-5-09T04:17:01Z
2023-05-09T02:16:54Z,42.805,6.029,13.3016,4.60072,2470.693,2023-5-09T04:20:04Z
2023-05-09T02:19:57Z,42.805,6.029,13.3019,4.60077,2470.679,2023-5-09T04:23:07Z
2023-05-09T02:23:00Z,42.805,6.029,13.3011,4.60074,2470.684,2023-5-09T04:26:10Z
2023-05-09T02:26:04Z,42.805,6.029,13.3015,4.60072,2470.73,2023-5-09T04:29:14Z
2023-05-09T02:29:07Z,42.805,6.029,13.3012,4.60075,2470.693,2023-5-09T04:32:17Z
2023-05-09T02:32:10Z,42.805,6.029,13.3012,4.60072,2470.684,2023-5-09T04:35:20Z
2023-05-09T02:35:13Z,42.805,6.029,13.3014,4.60072,2470.693,2023-5-09T04:38:23Z
2023-05-09T02:38:16Z,42.805,6.029,13.3014,4.60076,2470.693,2023-5-09T04:41:26Z
2023-05-09T02:41:19Z,42.805,6.029,13.3016,4.60079,2470.67,2023-5-09T04:44:29Z
2023-05-09T02:44:22Z,42.805,6.029,13.3017,4.60080,2470.661,2023-5-09T04:47:32Z
2023-05-09T02:47:25Z,42.805,6.029,13.3020,4.60077,2470.684,2023-5-09T04:50:35Z
2023-05-09T02:50:28Z,42.805,6.029,13.3015,4.60077,2470.693,2023-5-09T04:53:38Z
2023-05-09T02:53:31Z,42.805,6.029,13.3012,4.60070,2470.646,2023-5-09T04:56:41Z
2023-05-09T02:56:34Z,42.805,6.029,13.3019,4.60070,2470.67,2023-5-09T04:59:44Z
2023-05-09T02:59:37Z,42.805,6.029,13.3016,4.60075,2470.646,2023-5-09T05:02:47Z
2023-05-09T03:02:40Z,42.805,6.029,13.3012,4.60077,2470.646,2023-5-09T05:05:50Z
2023-05-09T03:05:44Z,42.805,6.029,13.3016,4.60076,2470.661,2023-5-09T05:08:54Z
2023-05-09T03:08:47Z,42.805,6.029,13.3016,4.60077,2470.67,2023-5-09T05:11:57Z
2023-05-09T03:11:50Z,42.805,6.029,13.3012,4.60078,2470.684,2023-5-09T05:15:00Z
2023-05-09T03:14:53Z,42.805,6.029,13.3014,4.60079,2470.67,2023-5-09T05:18:03Z
2023-05-09T03:17:56Z,42.805,6.029,13.3018,4.60078,2470.67,2023-5-09T05:21:06Z
2023-05-09T03:20:59Z,42.805,6.029,13.3018,4.60082,2470.624,2023-5-09T05:24:09Z
2023-05-09T03:24:02Z,42.805,6.029,13.3018,4.60079,2470.661,2023-5-09T05:27:12Z
2023-05-09T03:27:05Z,42.805,6.029,13.3015,4.60077,2470.684,2023-5-09T05:30:15Z
2023-05-09T03:30:08Z,42.805,6.029,13.3011,4.60075,2470.661,2023-5-09T05:33:18Z
2023-05-09T03:33:11Z,42.805,6.029,13.3015,4.60079,2470.684,2023-5-09T05:36:21Z
2023-05-09T03:36:14Z,42.805,6.029,13.3014,4.60079,2470.646,2023-5-09T05:39:24Z
2023-05-09T03:39:17Z,42.805,6.029,13.3016,4.60072,2470.646,2023-5-09T05:42:27Z
2023-05-09T03:42:20Z,42.805,6.029,13.3016,4.60081,2470.646,2023-5-09T05:45:30Z
2023-05-09T03:45:24Z,42.805,6.029,13.3017,4.60083,2470.646,2023-5-09T05:48:34Z
2023-05-09T03:48:27Z,42.805,6.029,13.3016,4.60077,2470.646,2023-5-09T05:51:37Z
2023-05-09T03:51:30Z,42.805,6.029,13.3016,4.60076,2470.624,2023-5-09T05:54:40Z
2023-05-09T03:54:33Z,42.805,6.029,13.3012,4.60074,2470.637,2023-5-09T05:57:43Z
2023-05-09T03:57:36Z,42.805,6.029,13.3014,4.60075,2470.646,2023-5-09T06:00:46Z
2023-05-09T04:00:39Z,42.805,6.029,13.3012,4.60080,2470.661,2023-5-09T06:03:49Z
2023-05-09T04:03:42Z,42.805,6.029,13.3014,4.60076,2470.624,2023-5-09T06:06:52Z
2023-05-09T04:06:45Z,42.805,6.029,13.3020,4.60077,2470.624,2023-5-09T06:09:55Z
2023-05-09T04:09:48Z,42.805,6.029,13.3015,4.60079,2470.614,2023-5-09T06:12:58Z
2023-05-09T04:12:51Z,42.805,6.029,13.3015,4.60074,2470.684,2023-5-09T06:16:01Z
2023-05-09T04:15:54Z,42.805,6.029,13.3014,4.60076,2470.646,2023-5-09T06:19:04Z
2023-05-09T04:18:57Z,42.805,6.029,13.3016,4.60079,2470.624,2023-5-09T06:22:07Z
2023-05-09T04:22:00Z,42.805,6.029,13.3019,4.60079,2470.624,2023-5-09T06:25:10Z
2023-05-09T04:25:04Z,42.805,6.029,13.3020,4.60076,2470.646,2023-5-09T06:28:14Z
2023-05-09T04:28:07Z,42.805,6.029,13.3014,4.60080,2470.624,2023-5-09T06:31:17Z
2023-05-09T04:31:10Z,42.805,6.029,13.3015,4.60081,2470.661,2023-5-09T06:34:20Z
2023-05-09T04:34:13Z,42.805,6.029,13.3017,4.60079,2470.624,2023-5-09T06:37:23Z
2023-05-09T04:37:16Z,42.805,6.029,13.3016,4.60077,2470.684,2023-5-09T06:40:26Z
2023-05-09T04:40:19Z,42.805,6.029,13.3014,4.60079,2470.67,2023-5-09T06:43:29Z
2023-05-09T04:43:22Z,42.805,6.029,13.3011,4.60077,2470.646,2023-5-09T06:46:32Z
2023-05-09T04:46:25Z,42.805,6.029,13.3016,4.60077,2470.661,2023-5-09T06:49:35Z
2023-05-09T04:49:28Z,42.805,6.029,13.3014,4.60077,2470.646,2023-5-09T06:52:38Z
2023-05-09T04:52:31Z,42.805,6.029,13.3015,4.60078,2470.661,2023-5-09T06:55:41Z
2023-05-09T04:55:35Z,42.805,6.029,13.3015,4.60079,2470.646,2023-5-09T06:58:45Z
2023-05-09T04:58:38Z,42.805,6.029,13.3016,4.60086,2470.707,2023-5-09T07:01:48Z
2023-05-09T05:01:41Z,42.805,6.029,13.3017,4.60093,2470.661,2023-5-09T07:04:51Z
2023-05-09T05:04:44Z,42.805,6.029,13.3018,4.60094,2470.646,2023-5-09T07:07:54Z
2023-05-09T05:07:47Z,42.805,6.029,13.3015,4.60089,2470.67,2023-5-09T07:10:57Z
2023-05-09T05:10:50Z,42.805,6.029,13.3016,4.60092,2470.646,2023-5-09T07:14:00Z
2023-05-09T05:13:53Z,42.805,6.029,13.3015,4.60093,2470.693,2023-5-09T07:17:03Z
2023-05-09T05:16:56Z,42.805,6.029,13.3019,4.60090,2470.637,2023-5-09T07:20:06Z
2023-05-09T05:19:59Z,42.805,6.029,13.3024,4.60102,2470.67,2023-5-09T07:23:09Z
2023-05-09T05:23:02Z,42.805,6.029,13.3018,4.60107,2470.624,2023-5-09T07:26:12Z
2023-05-09T05:26:05Z,42.805,6.029,13.3023,4.60101,2470.67,2023-5-09T07:29:15Z
2023-05-09T05:29:08Z,42.805,6.029,13.3021,4.60101,2470.661,2023-5-09T07:32:18Z
2023-05-09T05:32:11Z,42.805,6.029,13.3017,4.60102,2470.684,2023-5-09T07:35:21Z
2023-05-09T05:35:15Z,42.805,6.029,13.3015,4.60083,2470.67,2023-5-09T07:38:25Z
2023-05-09T05:38:18Z,42.805,6.029,13.3020,4.60077,2470.646,2023-5-09T07:41:28Z
2023-05-09T05:41:21Z,42.805,6.029,13.3016,4.60087,2470.707,2023-5-09T07:44:31Z
2023-05-09T05:44:24Z,42.805,6.029,13.3016,4.60075,2470.707,2023-5-09T07:47:34Z
2023-05-09T05:47:27Z,42.805,6.029,13.3015,4.60079,2470.67,2023-5-09T07:50:37Z
2023-05-09T05:50:30Z,42.805,6.029,13.3021,4.60074,2470.67,2023-5-09T07:53:40Z
2023-05-09T05:53:33Z,42.805,6.029,13.3014,4.60080,2470.684,2023-5-09T07:56:43Z
2023-05-09T05:56:36Z,42.805,6.029,13.3012,4.60077,2470.67,2023-5-09T07:59:46Z
2023-05-09T05:59:39Z,42.805,6.029,13.3021,4.60079,2470.67,2023-5-09T08:02:49Z
2023-05-09T06:02:42Z,42.805,6.029,13.3012,4.60082,2470.684,2023-5-09T08:05:52Z
2023-05-09T06:05:45Z,42.805,6.029,13.3019,4.60078,2470.67,2023-5-09T08:08:55Z
2023-05-09T06:08:48Z,42.805,6.029,13.3014,4.60080,2470.684,2023-5-09T08:11:58Z
2023-05-09T06:11:51Z,42.805,6.029,13.3015,4.60079,2470.67,2023-5-09T08:15:02Z
2023-05-09T06:14:55Z,42.805,6.029,13.3017,4.60079,2470.693,2023-5-09T08:18:05Z
2023-05-09T06:17:58Z,42.805,6.029,13.3015,4.60080,2470.661,2023-5-09T08:21:08Z
2023-05-09T06:21:01Z,42.805,6.029,13.3017,4.60081,2470.67,2023-5-09T08:24:11Z
2023-05-09T06:24:04Z,42.805,6.029,13.3017,4.60077,2470.693,2023-5-09T08:27:14Z
2023-05-09T06:27:07Z,42.805,6.029,13.3015,4.60086,2470.684,2023-5-09T08:30:17Z
2023-05-09T06:30:10Z,42.805,6.029,13.3015,4.60080,2470.67,2023-5-09T08:33:20Z
2023-05-09T06:33:13Z,42.805,6.029,13.3020,4.60084,2470.661,2023-5-09T08:36:23Z
2023-05-09T06:36:16Z,42.805,6.029,13.3021,4.60089,2470.707,2023-5-09T08:39:26Z
2023-05-09T06:39:19Z,42.805,6.029,13.3014,4.60085,2470.707,2023-5-09T08:42:29Z
2023-05-09T06:42:22Z,42.805,6.029,13.3018,4.60085,2470.646,2023-5-09T08:45:32Z
2023-05-09T06:45:25Z,42.805,6.029,13.3017,4.60081,2470.707,2023-5-09T08:48:35Z
2023-05-09T06:48:28Z,42.805,6.029,13.3018,4.60078,2470.67,2023-5-09T08:51:38Z
2023-05-09T06:51:31Z,42.805,6.029,13.3019,4.60085,2470.717,2023-5-09T08:54:42Z
2023-05-09T06:54:35Z,42.805,6.029,13.3015,4.60082,2470.74,2023-5-09T08:57:45Z
2023-05-09T06:57:38Z,42.805,6.029,13.3021,4.60079,2470.73,2023-5-09T09:00:48Z
2023-05-09T07:00:41Z,42.805,6.029,13.3016,4.60077,2470.693,2023-5-09T09:03:51Z
2023-05-09T07:03:44Z,42.805,6.029,13.3014,4.60079,2470.707,2023-5-09T09:06:54Z
2023-05-09T07:06:47Z,42.805,6.029,13.3018,4.60079,2470.693,2023-5-09T09:09:57Z
2023-05-09T07:09:50Z,42.805,6.029,13.3018,4.60078,2470.73,2023-5-09T09:13:00Z
2023-05-09T07:12:53Z,42.805,6.029,13.3017,4.60076,2470.717,2023-5-09T09:16:03Z
2023-05-09T07:15:56Z,42.805,6.029,13.3017,4.60077,2470.679,2023-5-09T09:19:06Z
2023-05-09T07:18:59Z,42.805,6.029,13.3019,4.60081,2470.73,2023-5-09T09:22:09Z
2023-05-09T07:22:02Z,42.805,6.029,13.3018,4.60084,2470.707,2023-5-09T09:25:12Z
2023-05-09T07:25:05Z,42.805,6.029,13.3019,4.60091,2470.707,2023-5-09T09:28:15Z
2023-05-09T07:28:08Z,42.805,6.029,13.3018,4.60081,2470.73,2023-5-09T09:31:18Z
2023-05-09T07:31:11Z,42.805,6.029,13.3019,4.60086,2470.73,2023-5-09T09:34:22Z
2023-05-09T07:34:15Z,42.805,6.029,13.3015,4.60085,2470.73,2023-5-09T09:37:25Z
2023-05-09T07:37:18Z,42.805,6.029,13.3018,4.60078,2470.754,2023-5-09T09:40:28Z
2023-05-09T07:40:21Z,42.805,6.029,13.3015,4.60075,2470.73,2023-5-09T09:43:31Z
2023-05-09T07:43:24Z,42.805,6.029,13.3022,4.60090,2470.717,2023-5-09T09:46:34Z
2023-05-09T07:46:27Z,42.805,6.029,13.3019,4.60082,2470.717,2023-5-09T09:49:37Z
2023-05-09T07:49:30Z,42.805,6.029,13.3018,4.60077,2470.754,2023-5-09T09:52:40Z
2023-05-09T07:52:33Z,42.805,6.029,13.3018,4.60078,2470.717,2023-5-09T09:55:43Z
2023-05-09T07:55:36Z,42.805,6.029,13.3016,4.60073,2470.74,2023-5-09T09:58:46Z
2023-05-09T07:58:39Z,42.805,6.029,13.3016,4.60078,2470.74,2023-5-09T10:01:49Z
2023-05-09T08:01:42Z,42.805,6.029,13.3014,4.60072,2470.74,2023-5-09T10:04:52Z
2023-05-09T08:04:45Z,42.805,6.029,13.3018,4.60073,2470.74,2023-5-09T10:07:55Z
2023-05-09T08:07:48Z,42.805,6.029,13.3016,4.60072,2470.754,2023-5-09T10:10:58Z
2023-05-09T08:10:51Z,42.805,6.029,13.3015,4.60072,2470.73,2023-5-09T10:14:02Z
2023-05-09T08:13:55Z,42.805,6.029,13.3018,4.60071,2470.754,2023-5-09T10:17:05Z
2023-05-09T08:16:58Z,42.805,6.029,13.3019,4.60073,2470.74,2023-5-09T10:20:08Z
2023-05-09T08:20:01Z,42.805,6.029,13.3014,4.60072,2470.74,2023-5-09T10:23:11Z
2023-05-09T08:23:04Z,42.805,6.029,13.3018,4.60074,2470.74,2023-5-09T10:26:14Z
2023-05-09T08:26:07Z,42.805,6.029,13.3015,4.60074,2470.763,2023-5-09T10:29:17Z
2023-05-09T08:29:10Z,42.805,6.029,13.3012,4.60072,2470.754,2023-5-09T10:32:20Z
2023-05-09T08:32:15Z,42.805,6.029,13.3019,4.60072,2470.754,2023-5-09T10:35:25Z
2023-05-09T08:35:18Z,42.805,6.029,13.3017,4.60072,2470.74,2023-5-09T10:38:28Z
2023-05-09T08:38:21Z,42.805,6.029,13.3018,4.60072,2470.74,2023-5-09T10:41:31Z
2023-05-09T08:41:24Z,42.805,6.029,13.3017,4.60074,2470.74,2023-5-09T10:44:34Z
2023-05-09T08:44:27Z,42.805,6.029,13.3015,4.60074,2470.763,2023-5-09T10:47:37Z
2023-05-09T08:47:30Z,42.805,6.029,13.3015,4.60074,2470.8,2023-5-09T10:50:40Z
2023-05-09T08:50:33Z,42.805,6.029,13.3018,4.60073,2470.74,2023-5-09T10:53:43Z
2023-05-09T08:53:36Z,42.805,6.029,13.3015,4.60074,2470.754,2023-5-09T10:56:46Z
2023-05-09T08:56:39Z,42.805,6.029,13.3015,4.60079,2470.74,2023-5-09T10:59:50Z
2023-05-09T08:59:43Z,42.805,6.029,13.3015,4.60073,2470.74,2023-5-09T11:02:53Z
2023-05-09T09:02:46Z,42.805,6.029,13.3014,4.60074,2470.763,2023-5-09T11:05:56Z
2023-05-09T09:05:49Z,42.805,6.029,13.3015,4.60075,2470.74,2023-5-09T11:08:59Z
2023-05-09T09:08:52Z,42.805,6.029,13.3016,4.60073,2470.763,2023-5-09T11:12:02Z
2023-05-09T09:11:55Z,42.805,6.029,13.3019,4.60072,2470.717,2023-5-09T11:15:05Z
2023-05-09T09:14:58Z,42.805,6.029,13.3013,4.60072,2470.74,2023-5-09T11:18:08Z
2023-05-09T09:18:01Z,42.805,6.029,13.3015,4.60072,2470.74,2023-5-09T11:21:11Z
2023-05-09T09:21:04Z,42.805,6.029,13.3018,4.60074,2470.717,2023-5-09T11:24:14Z
2023-05-09T09:24:07Z,42.805,6.029,13.3015,4.60079,2470.74,2023-5-09T11:27:17Z
2023-05-09T09:27:10Z,42.805,6.029,13.3016,4.60072,2470.74,2023-5-09T11:30:20Z
2023-05-09T09:30:13Z,42.805,6.029,13.3014,4.60072,2470.717,2023-5-09T11:33:23Z
2023-05-09T09:33:16Z,42.805,6.029,13.3019,4.60072,2470.717,2023-5-09T11:36:26Z
2023-05-09T09:36:19Z,42.805,6.029,13.3019,4.60072,2470.73,2023-5-09T11:39:30Z
2023-05-09T09:39:23Z,42.805,6.029,13.3019,4.60072,2470.754,2023-5-09T11:42:33Z
2023-05-09T09:42:26Z,42.805,6.029,13.3016,4.60072,2470.73,2023-5-09T11:45:36Z
2023-05-09T09:45:29Z,42.805,6.029,13.3019,4.60071,2470.74,2023-5-09T11:48:39Z
2023-05-09T09:48:32Z,42.805,6.029,13.3016,4.60072,2470.717,2023-5-09T11:51:42Z
2023-05-09T09:51:35Z,42.805,6.029,13.3015,4.60072,2470.73,2023-5-09T11:54:45Z
2023-05-09T09:54:38Z,42.805,6.029,13.3017,4.60072,2470.73,2023-5-09T11:57:48Z
2023-05-09T09:57:41Z,42.805,6.029,13.3019,4.60072,2470.74,2023-5-09T12:00:51Z
2023-05-09T10:00:44Z,42.805,6.029,13.3017,4.60071,2470.74,2023-5-09T12:03:54Z
2023-05-09T10:03:47Z,42.805,6.029,13.3021,4.60070,2470.717,2023-5-09T12:06:57Z
2023-05-09T10:06:50Z,42.805,6.029,13.3015,4.60072,2470.73,2023-5-09T12:10:00Z
2023-05-09T10:09:53Z,42.805,6.029,13.3019,4.60072,2470.717,2023-5-09T12:13:03Z
2023-05-09T10:12:56Z,42.805,6.029,13.3015,4.60071,2470.693,2023-5-09T12:16:07Z
2023-05-09T10:15:59Z,42.805,6.029,13.3015,4.60072,2470.73,2023-5-09T12:19:10Z
2023-05-09T10:19:03Z,42.805,6.029,13.3018,4.60071,2470.679,2023-5-09T12:22:13Z
2023-05-09T10:22:06Z,42.805,6.029,13.3014,4.60071,2470.693,2023-5-09T12:25:16Z
2023-05-09T10:25:09Z,42.805,6.029,13.3017,4.60072,2470.693,2023-5-09T12:28:19Z
2023-05-09T10:28:12Z,42.805,6.029,13.3017,4.60070,2470.73,2023-5-09T12:31:22Z
2023-05-09T10:31:13Z,42.805,6.029,13.3015,4.60071,2470.693,2023-5-09T12:34:24Z
2023-05-09T10:34:17Z,42.805,6.029,13.3017,4.60070,2470.717,2023-5-09T12:37:27Z
2023-05-09T10:37:20Z,42.805,6.029,13.3016,4.60072,2470.73,2023-5-09T12:40:30Z
2023-05-09T10:40:23Z,42.805,6.029,13.3014,4.60070,2470.693,2023-5-09T12:43:33Z
2023-05-09T10:43:26Z,42.805,6.029,13.3017,4.60070,2470.693,2023-5-09T12:46:36Z
2023-05-09T10:46:29Z,42.805,6.029,13.3017,4.60072,2470.693,2023-5-09T12:49:39Z
2023-05-09T10:49:32Z,42.805,6.029,13.3015,4.60071,2470.754,2023-5-09T12:52:42Z
2023-05-09T10:52:35Z,42.805,6.029,13.3014,4.60070,2470.693,2023-5-09T12:55:45Z
2023-05-09T10:55:38Z,42.805,6.029,13.3016,4.60072,2470.67,2023-5-09T12:58:48Z
2023-05-09T10:58:41Z,42.805,6.029,13.3015,4.60074,2470.693,2023-5-09T13:01:51Z
2023-05-09T11:01:44Z,42.805,6.029,13.3014,4.60072,2470.717,2023-5-09T13:04:54Z
2023-05-09T11:04:47Z,42.805,6.029,13.3014,4.60073,2470.67,2023-5-09T13:07:57Z
2023-05-09T11:07:50Z,42.805,6.029,13.3014,4.60072,2470.707,2023-5-09T13:11:01Z
2023-05-09T11:10:53Z,42.805,6.029,13.3018,4.60070,2470.67,2023-5-09T13:14:04Z
2023-05-09T11:13:57Z,42.805,6.029,13.3015,4.60070,2470.717,2023-5-09T13:17:07Z
2023-05-09T11:17:00Z,42.805,6.029,13.3017,4.60071,2470.67,2023-5-09T13:20:10Z
2023-05-09T11:20:03Z,42.805,6.029,13.3014,4.60070,2470.693,2023-5-09T13:23:13Z
2023-05-09T11:23:06Z,42.805,6.029,13.3019,4.60071,2470.707,2023-5-09T13:26:16Z
2023-05-09T11:26:09Z,42.805,6.029,13.3016,4.60072,2470.693,2023-5-09T13:29:19Z
2023-05-09T11:29:12Z,42.805,6.029,13.3015,4.60071,2470.67,2023-5-09T13:32:22Z
2023-05-09T11:32:15Z,42.805,6.029,13.3016,4.60072,2470.707,2023-5-09T13:35:25Z
2023-05-09T11:35:18Z,42.805,6.029,13.3016,4.60070,2470.707,2023-5-09T13:38:28Z
2023-05-09T11:38:21Z,42.805,6.029,13.3016,4.60071,2470.646,2023-5-09T13:41:31Z
2023-05-09T11:41:24Z,42.805,6.029,13.3016,4.60071,2470.67,2023-5-09T13:44:34Z
2023-05-09T11:44:27Z,42.805,6.029,13.3015,4.60070,2470.67,2023-5-09T13:47:38Z
2023-05-09T11:47:30Z,42.805,6.029,13.3015,4.60072,2470.67,2023-5-09T13:50:41Z
2023-05-09T11:50:34Z,42.805,6.029,13.3014,4.60072,2470.661,2023-5-09T13:53:44Z
2023-05-09T11:53:37Z,42.805,6.029,13.3015,4.60070,2470.646,2023-5-09T13:56:47Z
2023-05-09T11:56:40Z,42.805,6.029,13.3015,4.60069,2470.684,2023-5-09T13:59:50Z
2023-05-09T11:59:43Z,42.805,6.029,13.3016,4.60070,2470.707,2023-5-09T14:02:53Z
2023-05-09T12:02:46Z,42.805,6.029,13.3015,4.60071,2470.67,2023-5-09T14:05:56Z
2023-05-09T12:05:49Z,42.805,6.029,13.3015,4.60070,2470.661,2023-5-09T14:08:59Z
2023-05-09T12:08:52Z,42.805,6.029,13.3016,4.60069,2470.684,2023-5-09T14:12:02Z
2023-05-09T12:11:55Z,42.805,6.029,13.3018,4.60070,2470.661,2023-5-09T14:15:05Z
2023-05-09T12:14:58Z,42.805,6.029,13.3014,4.60070,2470.646,2023-5-09T14:18:08Z
2023-05-09T12:18:01Z,42.805,6.029,13.3019,4.60069,2470.661,2023-5-09T14:21:11Z
2023-05-09T12:21:04Z,42.805,6.029,13.3016,4.60070,2470.624,2023-5-09T14:24:14Z
2023-05-09T12:24:07Z,42.805,6.029,13.3016,4.60071,2470.67,2023-5-09T14:27:18Z
2023-05-09T12:27:10Z,42.805,6.029,13.3016,4.60072,2470.656,2023-5-09T14:30:21Z
2023-05-09T12:30:13Z,42.805,6.029,13.3019,4.60071,2470.633,2023-5-09T14:33:24Z
2023-05-09T12:33:17Z,42.805,6.029,13.3012,4.60069,2470.67,2023-5-09T14:36:27Z
2023-05-09T12:36:20Z,42.805,6.029,13.3014,4.60072,2470.67,2023-5-09T14:39:30Z
2023-05-09T12:39:23Z,42.805,6.029,13.3018,4.60071,2470.67,2023-5-09T14:42:33Z
2023-05-09T12:42:26Z,42.805,6.029,13.3015,4.60069,2470.684,2023-5-09T14:45:36Z
2023-05-09T12:45:29Z,42.805,6.029,13.3019,4.60070,2470.646,2023-5-09T14:48:39Z
2023-05-09T12:48:32Z,42.805,6.029,13.3014,4.60069,2470.646,2023-5-09T14:51:42Z
2023-05-09T12:51:35Z,42.805,6.029,13.3018,4.60070,2470.684,2023-5-09T14:54:45Z
2023-05-09T12:54:38Z,42.805,6.029,13.3018,4.60070,2470.646,2023-5-09T14:57:48Z
2023-05-09T12:57:41Z,42.805,6.029,13.3019,4.60069,2470.637,2023-5-09T15:00:51Z
2023-05-09T13:00:44Z,42.805,6.029,13.3023,4.60070,2470.67,2023-5-09T15:03:55Z
2023-05-09T13:03:47Z,42.805,6.029,13.3019,4.60070,2470.6,2023-5-09T15:06:58Z
2023-05-09T13:06:50Z,42.805,6.029,13.3017,4.60069,2470.624,2023-5-09T15:10:01Z
2023-05-09T13:09:54Z,42.805,6.029,13.3016,4.60072,2470.624,2023-5-09T15:13:04Z
2023-05-09T13:12:57Z,42.805,6.029,13.3017,4.60071,2470.646,2023-5-09T15:16:07Z
2023-05-09T13:16:00Z,42.805,6.029,13.3015,4.60072,2470.6,2023-5-09T15:19:10Z
2023-05-09T13:19:03Z,42.805,6.029,13.3014,4.60071,2470.624,2023-5-09T15:22:13Z
2023-05-09T13:22:06Z,42.805,6.029,13.3019,4.60069,2470.637,2023-5-09T15:25:16Z
2023-05-09T13:25:09Z,42.805,6.029,13.3014,4.60070,2470.624,2023-5-09T15:28:19Z
2023-05-09T13:28:12Z,42.805,6.029,13.3014,4.60069,2470.646,2023-5-09T15:31:22Z
2023-05-09T13:31:15Z,42.805,6.029,13.3018,4.60069,2470.624,2023-5-09T15:34:25Z
2023-05-09T13:34:18Z,42.805,6.029,13.3014,4.60072,2470.577,2023-5-09T15:37:28Z
2023-05-09T13:37:21Z,42.805,6.029,13.3016,4.60069,2470.6,2023-5-09T15:40:31Z
2023-05-09T13:40:24Z,42.805,6.029,13.3019,4.60070,2470.577,2023-5-09T15:43:35Z
2023-05-09T13:43:27Z,42.805,6.029,13.3018,4.60069,2470.6,2023-5-09T15:46:38Z
2023-05-09T13:46:30Z,42.805,6.029,13.3014,4.60070,2470.577,2023-5-09T15:49:41Z
2023-05-09T13:49:34Z,42.805,6.029,13.3016,4.60069,2470.6,2023-5-09T15:52:44Z
2023-05-09T13:52:37Z,42.805,6.029,13.3017,4.60070,2470.6,2023-5-09T15:55:47Z
2023-05-09T13:55:40Z,42.805,6.029,13.3015,4.60069,2470.577,2023-5-09T15:58:50Z
2023-05-09T13:58:43Z,42.805,6.029,13.3015,4.60070,2470.646,2023-5-09T16:01:53Z
2023-05-09T14:01:46Z,42.805,6.029,13.3017,4.60069,2470.624,2023-5-09T16:04:56Z
2023-05-09T14:04:49Z,42.805,6.029,13.3015,4.60069,2470.6,2023-5-09T16:07:59Z
2023-05-09T14:07:52Z,42.805,6.029,13.3014,4.60072,2470.637,2023-5-09T16:11:02Z
2023-05-09T14:10:55Z,42.805,6.029,13.3012,4.60070,2470.577,2023-5-09T16:14:05Z
2023-05-09T14:13:58Z,42.805,6.029,13.3015,4.60071,2470.6,2023-5-09T16:17:08Z
2023-05-09T14:17:01Z,42.805,6.029,13.3017,4.60069,2470.577,2023-5-09T16:20:11Z
2023-05-09T14:20:04Z,42.805,6.029,13.3020,4.60069,2470.577,2023-5-09T16:23:15Z
2023-05-09T14:23:07Z,42.805,6.029,13.3016,4.60070,2470.577,2023-5-09T16:26:18Z
2023-05-09T14:26:10Z,42.805,6.029,13.3018,4.60069,2470.6,2023-5-09T16:29:21Z
2023-05-09T14:29:14Z,42.805,6.029,13.3017,4.60070,2470.6,2023-5-09T16:32:24Z
2023-05-09T14:32:18Z,42.805,6.029,13.3015,4.60072,2470.577,2023-5-09T16:35:29Z
2023-05-09T14:35:21Z,42.805,6.029,13.3014,4.60072,2470.6,2023-5-09T16:38:32Z
2023-05-09T14:38:24Z,42.805,6.029,13.3014,4.60070,2470.577,2023-5-09T16:41:35Z
2023-05-09T14:41:28Z,42.805,6.029,13.3015,4.60072,2470.6,2023-5-09T16:44:38Z
2023-05-09T14:44:31Z,42.805,6.029,13.3018,4.60070,2470.577,2023-5-09T16:47:41Z
2023-05-09T14:47:34Z,42.805,6.029,13.3017,4.60072,2470.577,2023-5-09T16:50:44Z
2023-05-09T14:50:37Z,42.805,6.029,13.3014,4.60069,2470.591,2023-5-09T16:53:47Z
2023-05-09T14:53:40Z,42.805,6.029,13.3019,4.60072,2470.6,2023-5-09T16:56:50Z
2023-05-09T14:56:43Z,42.805,6.029,13.3017,4.60069,2470.6,2023-5-09T16:59:53Z
2023-05-09T14:59:46Z,42.805,6.029,13.3013,4.60069,2470.591,2023-5-09T17:02:56Z
2023-05-09T15:02:49Z,42.805,6.029,13.3017,4.60069,2470.577,2023-5-09T17:05:59Z
2023-05-09T15:05:52Z,42.805,6.029,13.3017,4.60070,2470.591,2023-5-09T17:09:02Z
2023-05-09T15:08:55Z,42.805,6.029,13.3013,4.60072,2470.6,2023-5-09T17:12:06Z
2023-05-09T15:11:58Z,42.805,6.029,13.3019,4.60069,2470.577,2023-5-09T17:15:09Z
2023-05-09T15:15:01Z,42.805,6.029,13.3016,4.60069,2470.614,2023-5-09T17:18:12Z